Regional Weather Roundup
Issued by NWS Midland/Odessa, TX

Skip options and go directly to product.
Home | Oldest Version | Next Version | Current Version | All | Text Only | Save Text | Print | Product List | Glossary On

Skip product version selection by date and time.   
712
ASUS44 KMAF 300802
RWRMAF
MIDLAND AREA WEATHER ROUNDUP
NATIONAL WEATHER SERVICE MIDLAND TX
300 AM CDT SAT AUG 30 2014

...IN SOUTHWEST TEXAS AND SOUTHEAST NEW MEXICO...

CITY           SKY/WX    TMP DP  RH WIND       PRES   REMARKS
ALPINE         CLEAR     69  59  71 CALM      30.16S
ANDREWS        FAIR      71  63  76 S5        30.04S
ARTESIA        NOT AVBL
BIG SPRING     CLEAR     74  70  87 CALM      30.03R
CARLSBAD       PTCLDY    76  57  51 S5        30.03S
DRYDEN           N/A     81  66  60 NE8       29.95S
FORT STOCKTON  MOCLDY    75  63  66 E6        30.02R
GUAD PASS      MOCLDY    70  58  65 NE17      30.19R
HOBBS          CLEAR     72  63  73 SE6       30.07F
MARFA          CLEAR     61  46  59 NW9       30.16R
MIDLAND AIRPK  CLEAR     76  65  67 SE6       30.03R
MIDLAND INTL   CLEAR     74  64  71 SE5       30.02R
ODESSA         CLEAR     75  62  64 SE8       30.03S
PECOS          CLEAR     75  63  66 NE6       29.98S
PRESIDIO       FAIR      81  61  50 N10       29.97S
SEMINOLE       CLEAR     69  64  84 SE3       30.06S
SNYDER         CLEAR     72  67  82 SW3       30.00S
WINK           PTCLDY    77  64  64 E7        29.99S
$$
...OTHER STATIONS IN TEXAS...

CITY           SKY/WX    TMP DP  RH WIND       PRES   REMARKS
ABILENE        CLEAR     73  70  90 S5        29.96S
AMARILLO       CLEAR     68  62  81 S10       30.07S
AUSTIN         PTCLDY    73  71  93 SE6       29.93S
BROWNSVILLE    TSTM      75  73  93 SE18G31   29.86S
CORPUS CHRISTI MOCLDY    78  75  90 CALM      29.88S
DALLAS FTW     PTCLDY    78  70  76 S9        29.92S
DEL RIO        MOCLDY    85  69  58 SE13      29.90R
EL PASO        PTCLDY    80  47  31 S6        30.03R
HOUSTON INT    MOCLDY    75  73  94 E8        29.90F
LUBBOCK        CLEAR     71  65  81 S7        30.03F
SAN ANGELO     CLEAR     71  66  84 W5        29.97S
SAN ANTONIO    MOCLDY    79  73  82 SE7       29.94S
WACO           PTCLDY    76  71  85 SE10      29.92F
WICHITA FALLS  NOT AVBL
$$
...OTHER LOCATIONS IN NEW MEXICO...

CITY           SKY/WX    TMP DP  RH WIND       PRES   REMARKS
ALAMAGORDO     PTCLDY    70  45  40 W13       30.06R
ALBUQUERQUE    CLEAR     70  42  36 W3        30.14S
CANNON AFB     CLEAR     65  56  72 SE6       30.11S
CLOVIS           N/A     63  50  63 SW3       30.13S
HOLLOMAN AFB   PTCLDY    65  48  53 W8        30.05R
ROSWELL        CLEAR     68  54  60 S7        30.05S
RUIDOSO        CLEAR     63  45  51 CALM      30.29S
SANTA FE       CLEAR     61  42  49 SE7       30.21F
TRUTH OR CONSE PTCLDY    69  49  48 NW6       30.09S
TUCUMCARI      PTCLDY    66  41  40 NE3       30.08R
$$

USA.gov is the U.S. government's official web portal to all federal, state and local government web resources and services.